Location: *
(48.8489°N, 2.3218°E)
Time: 20:20:10
(UTC+00:00)

Cosmos 883 Rocket - Pass Details

Date: 23 August 2019
Orbit: 950 x 996 km, 83.0° (Epoch: 18 October)

Event Time Altitude Azimuth Distance (km) Brightness Sun altitude
Exits shadow 20:38:51 - 182° (S) 3,120 6.8 -16.2°
Reaches altitude 10° 20:39:49 10° 182° (S) 2,756 6.5 -16.3°
Maximum altitude 20:46:10 80° 96° (E) 1,016 4.5 -17.1°
Drops below altitude 10° 20:52:31 10° 11° (N) 2,766 7.3 -17.9°
Sets 20:55:03 0° 11° (N) 3,715 8.0 -18.2°
